GW0692 Weather Reports


Display with metric or nautical units.
time (UTC)temp
F
wind
direction
speed
MPH
gust
MPH
rain 1hr
in
rain 24hr
in
rain mn
in
humidity
%
barometer
mb
20260831012949 76 241 1.0 2.0 0.00 0.00 0.00 34 1024.1
20260831012445 76 250 3.0 3.0 0.00 0.00 0.00 34 1024.1
20260831011944 76 255 1.0 2.0 0.00 0.00 0.00 34 1023.9
20260831011439 77 254 2.0 3.0 0.00 0.00 0.00 33 1023.8
20260831010935 77 241 3.0 3.0 0.00 0.00 0.00 33 1024.0
20260831010430 77 240 2.0 3.0 0.00 0.00 0.00 33 1023.9
20260831005925 77 242 2.0 2.0 0.00 0.00 0.00 33 1024.0
20260831005421 77 249 1.0 2.0 0.00 0.00 0.00 32 1023.9
20260831004920 78 240 2.0 2.0 0.00 0.00 0.00 32 1023.9
20260831004417 78 238 2.0 2.0 0.00 0.00 0.00 32 1024.0
20260831003912 78 238 0.0 2.0 0.00 0.00 0.00 32 1024.1
20260831003408 78 302 3.0 5.0 0.00 0.00 0.00 32 1024.3
20260831002907 78 285 4.0 7.0 0.00 0.00 0.00 32 1024.0
20260831002407 79 243 5.0 7.0 0.00 0.00 0.00 32 1024.0
20260831001902 79 236 2.0 3.0 0.00 0.00 0.00 32 1024.3
20260831001357 79 240 2.0 2.0 0.00 0.00 0.00 31 1024.1
20260831000855 79 253 2.0 2.0 0.00 0.00 0.00 32 1024.1
20260831000350 80 236 1.0 2.0 0.00 0.00 0.00 32 1024.3
20260830235848 80 230 2.0 3.0 0.00 0.00 0.00 31 1024.4
20260830235343 80 234 2.0 3.0 0.00 0.00 0.00 31 1024.8
20260830234838 80 234 2.0 3.0 0.00 0.00 0.00 31 1024.3
20260830234334 80 236 1.0 2.0 0.00 0.00 0.00 30 1024.3
20260830233830 80 250 2.0 2.0 0.00 0.00 0.00 30 1024.3
20260830233325 80 253 6.0 9.0 0.00 0.00 0.00 30 1024.1
20260830232821 80 263 1.0 2.0 0.00 0.00 0.00 30 1024.3
20260830232316 81 320 3.0 5.0 0.00 0.00 0.00 30 1024.1
20260830231812 81 262 4.0 5.0 0.00 0.00 0.00 30 1024.0
20260830231307 81 255 3.0 3.0 0.00 0.00 0.00 29 1024.3
20260830230801 81 241 0.0 2.0 0.00 0.00 0.00 29 1024.0
20260830230257 81 242 3.0 3.0 0.00 0.00 0.00 29 1024.0
20260830225756 81 255 2.0 2.0 0.00 0.00 0.00 29 1024.0
20260830225251 82 263 7.0 9.0 0.00 0.00 0.00 30 1023.9
20260830224750 84 243 5.0 9.0 0.00 0.00 0.00 30 1024.0
20260830224246 84 268 1.0 2.0 0.00 0.00 0.00 28 1024.0
20260830223742 83 289 6.0 10.0 0.00 0.00 0.00 30 1024.1
20260830223238 82 254 6.0 9.0 0.00 0.00 0.00 30 1024.0
20260830222732 84 222 3.0 3.0 0.00 0.00 0.00 31 1024.1
20260830222227 85 253 10.0 15.0 0.00 0.00 0.00 30 1023.9
20260830221722 84 261 10.0 14.0 0.00 0.00 0.00 31 1024.1
20260830221219 83 259 4.0 5.0 0.00 0.00 0.00 33 1024.1
20260830220709 83 286 9.0 14.0 0.00 0.00 0.00 32 1024.5
20260830220208 82 273 4.0 5.0 0.00 0.00 0.00 33 1024.4
20260830215707 81 238 7.0 12.0 0.00 0.00 0.00 34 1024.4
20260830215202 82 230 12.0 21.0 0.00 0.00 0.00 34 1024.5
20260830214657 82 217 4.0 5.0 0.00 0.00 0.00 33 1024.5
20260830214151 85 215 5.0 9.0 0.00 0.00 0.00 31 1024.4
20260830213650 86 258 7.0 9.0 0.00 0.00 0.00 30 1024.6
20260830213146 84 243 5.0 9.0 0.00 0.00 0.00 32 1024.8
20260830212642 82 247 6.0 7.0 0.00 0.00 0.00 32 1025.0
20260830212136 82 228 9.0 10.0 0.00 0.00 0.00 32 1025.0
20260830211632 84 277 4.0 5.0 0.00 0.00 0.00 31 1024.8
20260830211131 82 262 7.0 9.0 0.00 0.00 0.00 32 1024.8
20260830210627 83 306 7.0 9.0 0.00 0.00 0.00 31 1024.8
20260830210126 83 267 8.0 12.0 0.00 0.00 0.00 31 1025.1
20260830205623 81 243 3.0 3.0 0.00 0.00 0.00 33 1025.1
20260830205119 81 244 9.0 12.0 0.00 0.00 0.00 35 1025.3
20260830204618 81 261 8.0 10.0 0.00 0.00 0.00 34 1025.4
20260830204117 82 280 5.0 7.0 0.00 0.00 0.00 32 1025.5
20260830203614 83 252 7.0 10.0 0.00 0.00 0.00 33 1025.4
20260830203113 81 275 6.0 7.0 0.00 0.00 0.00 31 1025.6
20260830202608 82 262 8.0 10.0 0.00 0.00 0.00 31 1025.3
20260830202103 82 314 8.0 14.0 0.00 0.00 0.00 32 1025.4
20260830201602 83 261 6.0 7.0 0.00 0.00 0.00 32 1025.6
20260830201052 83 338 4.0 7.0 0.00 0.00 0.00 31 1025.6
20260830200548 81 218 5.0 9.0 0.00 0.00 0.00 33 1025.9
20260830200046 82 257 10.0 12.0 0.00 0.00 0.00 32 1025.9
20260830195543 83 241 5.0 10.0 0.00 0.00 0.00 32 1025.9
20260830195040 82 307 7.0 15.0 0.00 0.00 0.00 33 1025.9
20260830194539 82 221 5.0 7.0 0.00 0.00 0.00 33 1025.9
20260830194039 82 280 8.0 12.0 0.00 0.00 0.00 32 1026.1
20260830193538 82 229 6.0 10.0 0.00 0.00 0.00 32 1025.9
20260830193034 82 290 8.0 10.0 0.00 0.00 0.00 33 1026.0
20260830192530 81 248 4.0 5.0 0.00 0.00 0.00 33 1026.1
20260830192029 80 217 7.0 7.0 0.00 0.00 0.00 33 1026.0
20260830191525 82 292 8.0 9.0 0.00 0.00 0.00 33 1026.0
20260830191020 81 251 5.0 7.0 0.00 0.00 0.00 34 1026.3
20260830190515 82 241 6.0 9.0 0.00 0.00 0.00 33 1026.4
20260830190010 80 232 5.0 7.0 0.00 0.00 0.00 34 1026.5
20260830185504 80 255 7.0 9.0 0.00 0.00 0.00 34 1026.1
20260830185000 79 238 7.0 9.0 0.00 0.00 0.00 36 1026.5
20260830184459 80 208 8.0 12.0 0.00 0.00 0.00 36 1026.3
20260830183953 80 226 7.0 12.0 0.00 0.00 0.00 36 1026.6
20260830183448 80 215 13.0 17.0 0.00 0.00 0.00 36 1026.5
20260830182943 79 236 10.0 14.0 0.00 0.00 0.00 36 1026.5
20260830182439 79 248 14.0 21.0 0.00 0.00 0.00 36 1026.5
20260830181935 80 242 12.0 15.0 0.00 0.00 0.00 35 1026.5
20260830181431 79 227 9.0 10.0 0.00 0.00 0.00 35 1026.5
20260830180925 80 285 8.0 12.0 0.00 0.00 0.00 34 1026.5
20260830180424 80 234 10.0 14.0 0.00 0.00 0.00 34 1026.4
20260830175923 80 232 9.0 10.0 0.00 0.00 0.00 34 1026.9
20260830175423 80 227 6.0 9.0 0.00 0.00 0.00 35 1026.5
20260830174918 80 238 2.0 2.0 0.00 0.00 0.00 35 1026.5
20260830174414 79 243 6.0 9.0 0.00 0.00 0.00 36 1026.5
20260830173909 80 262 6.0 7.0 0.00 0.00 0.00 35 1026.9
20260830173405 80 231 5.0 9.0 0.00 0.00 0.00 35 1026.5
20260830172900 78 234 3.0 3.0 0.00 0.00 0.00 37 1026.6
20260830172356 78 248 3.0 3.0 0.00 0.00 0.00 36 1026.8
20260830171852 79 282 5.0 7.0 0.00 0.00 0.00 37 1026.9
20260830171348 79 237 5.0 5.0 0.00 0.00 0.00 37 1027.3
20260830170842 78 258 3.0 5.0 0.00 0.00 0.00 39 1027.1
20260830170342 77 259 8.0 12.0 0.00 0.00 0.00 39 1027.1
20260830165840 77 274 9.0 14.0 0.00 0.00 0.00 40 1027.3
20260830165337 76 239 5.0 7.0 0.00 0.00 0.00 41 1027.0
20260830164833 75 275 7.0 10.0 0.00 0.00 0.00 43 1027.3
20260830164328 75 265 7.0 10.0 0.00 0.00 0.00 43 1027.3
20260830163825 75 266 11.0 17.0 0.00 0.00 0.00 42 1027.5
20260830163320 75 247 7.0 10.0 0.00 0.00 0.00 43 1027.6
20260830162815 75 232 8.0 12.0 0.00 0.00 0.00 44 1027.3
20260830162312 75 271 4.0 5.0 0.00 0.00 0.00 43 1027.3
20260830161812 74 230 4.0 7.0 0.00 0.00 0.00 45 1027.3
20260830161310 74 277 8.0 10.0 0.00 0.00 0.00 44 1027.9
20260830160806 73 230 5.0 7.0 0.00 0.00 0.00 46 1027.6
20260830160301 72 221 5.0 7.0 0.00 0.00 0.00 47 1027.6
20260830155757 72 236 5.0 7.0 0.00 0.00 0.00 49 1027.5
20260830155253 71 232 7.0 9.0 0.00 0.00 0.00 51 1027.4
20260830154753 71 227 6.0 9.0 0.00 0.00 0.00 53 1027.6
20260830154249 69 261 10.0 14.0 0.00 0.00 0.00 54 1027.5
20260830153745 69 277 7.0 12.0 0.00 0.00 0.00 55 1027.3
20260830153241 69 222 10.0 15.0 0.00 0.00 0.00 55 1027.4
20260830152739 69 238 8.0 12.0 0.00 0.00 0.00 55 1027.5
20260830152234 69 284 17.0 26.0 0.00 0.00 0.00 56 1027.3
20260830151734 69 265 8.0 10.0 0.00 0.00 0.00 55 1027.3
20260830151233 69 265 8.0 12.0 0.00 0.00 0.00 55 1027.3
20260830150729 70 311 11.0 14.0 0.00 0.00 0.00 54 1027.5
20260830150228 70 271 7.0 10.0 0.00 0.00 0.00 53 1027.3
20260830145723 70 236 6.0 7.0 0.00 0.00 0.00 54 1027.3
20260830145218 70 234 7.0 10.0 0.00 0.00 0.00 54 1027.3
20260830144713 69 272 7.0 9.0 0.00 0.00 0.00 54 1027.1
20260830144209 69 217 5.0 7.0 0.00 0.00 0.00 54 1027.3
20260830143705 69 263 8.0 12.0 0.00 0.00 0.00 55 1027.3
20260830143202 69 212 6.0 10.0 0.00 0.00 0.00 55 1027.0
20260830142658 68 228 5.0 7.0 0.00 0.00 0.00 56 1027.3
20260830142153 68 250 7.0 10.0 0.00 0.00 0.00 56 1026.9
20260830141648 67 246 7.0 9.0 0.00 0.00 0.00 58 1027.0
20260830141143 67 240 13.0 19.0 0.00 0.00 0.00 57 1027.1
20260830140638 67 236 3.0 3.0 0.00 0.00 0.00 58 1027.4
20260830140138 66 263 6.0 7.0 0.00 0.00 0.00 58 1027.1
20260830135633 66 235 7.0 10.0 0.00 0.00 0.00 58 1027.0
20260830135128 66 259 6.0 7.0 0.00 0.00 0.00 57 1027.3
20260830134624 67 228 6.0 9.0 0.00 0.00 0.00 57 1027.3
20260830134120 67 223 8.0 10.0 0.00 0.00 0.00 56 1027.1
20260830133615 67 279 5.0 7.0 0.00 0.00 0.00 56 1027.0
20260830133110 66 241 3.0 3.0 0.00 0.00 0.00 57 1027.0
20260830132607 66 261 9.0 12.0 0.00 0.00 0.00 58 1026.9
20260830132102 66 281 4.0 5.0 0.00 0.00 0.00 58 1026.9
20260830131600 65 290 6.0 9.0 0.00 0.00 0.00 59 1026.9
20260830131055 65 219 3.0 3.0 0.00 0.00 0.00 59 1026.8
20260830130550 64 261 6.0 7.0 0.00 0.00 0.00 60 1026.6
20260830130045 64 218 3.0 3.0 0.00 0.00 0.00 61 1026.6
20260830125540 64 291 5.0 7.0 0.00 0.00 0.00 61 1026.6
20260830125039 63 260 4.0 5.0 0.00 0.00 0.00 61 1026.6
20260830124538 63 232 4.0 5.0 0.00 0.00 0.00 62 1026.4
20260830124033 63 234 5.0 7.0 0.00 0.00 0.00 61 1026.4
20260830123531 63 239 5.0 10.0 0.00 0.00 0.00 61 1026.5
20260830123026 63 232 5.0 7.0 0.00 0.00 0.00 61 1026.4
20260830122522 63 259 4.0 5.0 0.00 0.00 0.00 61 1026.3
20260830122018 63 249 6.0 9.0 0.00 0.00 0.00 61 1026.4
20260830121513 64 240 5.0 5.0 0.00 0.00 0.00 60 1026.4
20260830121007 64 236 5.0 7.0 0.00 0.00 0.00 60 1026.3
20260830120503 64 246 6.0 9.0 0.00 0.00 0.00 60 1026.4
20260830115959 64 275 5.0 7.0 0.00 0.00 0.00 60 1026.4
20260830115455 64 246 3.0 3.0 0.00 0.00 0.00 60 1026.1
20260830114950 63 233 5.0 5.0 0.00 0.00 0.00 61 1026.3
20260830114447 63 253 3.0 3.0 0.00 0.00 0.00 61 1026.3
20260830113946 63 230 5.0 7.0 0.00 0.00 0.00 61 1026.3
20260830113442 63 277 5.0 5.0 0.00 0.00 0.00 61 1026.1
20260830112937 64 255 4.0 7.0 0.00 0.00 0.00 61 1026.3
20260830112433 63 243 4.0 5.0 0.00 0.00 0.00 61 1026.0
20260830111929 63 256 2.0 3.0 0.00 0.00 0.00 61 1026.4
20260830111424 63 277 4.0 5.0 0.00 0.00 0.00 61 1026.6
20260830110920 63 249 5.0 7.0 0.00 0.00 0.00 61 1026.6
20260830110415 63 260 4.0 5.0 0.00 0.00 0.00 61 1026.3
20260830105914 63 261 3.0 3.0 0.00 0.00 0.00 62 1026.3
20260830105411 63 265 3.0 3.0 0.00 0.00 0.00 62 1026.4
20260830104907 63 258 2.0 3.0 0.00 0.00 0.00 62 1026.4
20260830104403 63 254 4.0 5.0 0.00 0.00 0.00 62 1026.3
20260830103903 63 239 4.0 7.0 0.00 0.00 0.00 63 1026.5
20260830103358 62 245 3.0 3.0 0.00 0.00 0.00 64 1026.3
20260830102856 62 250 4.0 5.0 0.00 0.00 0.00 67 1026.4
20260830102352 60 249 2.0 2.0 0.00 0.00 0.00 70 1026.5
20260830101848 60 248 1.0 2.0 0.00 0.00 0.00 73 1026.4
20260830101348 59 244 0.0 2.0 0.00 0.00 0.00 74 1026.5
20260830100843 59 246 1.0 2.0 0.00 0.00 0.00 74 1026.1
20260830100342 60 243 2.0 3.0 0.00 0.00 0.00 73 1026.3
20260830095841 60 243 3.0 3.0 0.00 0.00 0.00 73 1026.4
20260830095337 60 230 2.0 2.0 0.00 0.00 0.00 73 1026.4
20260830094833 60 240 3.0 3.0 0.00 0.00 0.00 72 1026.1
20260830094329 60 243 2.0 2.0 0.00 0.00 0.00 72 1026.3
20260830093824 60 251 3.0 3.0 0.00 0.00 0.00 72 1026.3
20260830093319 61 242 2.0 3.0 0.00 0.00 0.00 72 1026.1
20260830092814 61 237 4.0 5.0 0.00 0.00 0.00 71 1026.3
20260830092310 61 240 3.0 3.0 0.00 0.00 0.00 71 1026.0
20260830091807 61 256 2.0 3.0 0.00 0.00 0.00 71 1026.1
20260830091306 61 207 2.0 3.0 0.00 0.00 0.00 71 1026.0
20260830090805 61 282 2.0 3.0 0.00 0.00 0.00 70 1026.1
20260830090301 61 249 3.0 3.0 0.00 0.00 0.00 70 1026.1
20260830085800 61 240 3.0 3.0 0.00 0.00 0.00 70 1026.3
20260830085256 61 245 3.0 3.0 0.00 0.00 0.00 69 1026.0
20260830084751 61 241 2.0 2.0 0.00 0.00 0.00 69 1026.4
20260830084247 62 310 5.0 7.0 0.00 0.00 0.00 68 1026.3
20260830083741 62 240 1.0 2.0 0.00 0.00 0.00 67 1026.5
20260830083238 62 268 3.0 3.0 0.00 0.00 0.00 67 1026.5
20260830082736 62 230 1.0 2.0 0.00 0.00 0.00 66 1026.3
20260830082233 62 224 1.0 2.0 0.00 0.00 0.00 66 1026.8
20260830081728 62 248 1.0 2.0 0.00 0.00 0.00 67 1026.6
20260830081227 62 238 0.0 0.0 0.00 0.00 0.00 67 1026.9
20260830080722 62 252 1.0 2.0 0.00 0.00 0.00 68 1027.0
20260830080218 62 232 1.0 2.0 0.00 0.00 0.00 70 1026.9
20260830075717 62 249 0.0 2.0 0.00 0.00 0.00 70 1026.9
20260830075213 62 237 2.0 2.0 0.00 0.00 0.00 70 1026.6
20260830074708 62 238 0.0 0.0 0.00 0.00 0.00 71 1027.1
20260830074204 62 241 0.0 0.0 0.00 0.00 0.00 70 1027.1
20260830073700 62 238 2.0 2.0 0.00 0.00 0.00 69 1027.3
20260830073155 62 238 2.0 2.0 0.00 0.00 0.00 68 1027.1
20260830072644 63 299 0.0 2.0 0.00 0.00 0.00 67 1027.5
20260830072144 63 237 0.0 2.0 0.00 0.00 0.00 67 1027.3
20260830071640 63 239 2.0 3.0 0.00 0.00 0.00 67 1027.5
20260830071138 63 262 0.0 2.0 0.00 0.00 0.00 67 1027.3
20260830070633 63 236 5.0 7.0 0.00 0.00 0.00 66 1027.1
20260830070128 63 222 4.0 5.0 0.00 0.00 0.00 66 1027.5
20260830065626 64 205 5.0 7.0 0.00 0.00 0.00 65 1027.4
20260830065125 64 248 0.0 2.0 0.00 0.00 0.00 64 1027.3
20260830064619 64 324 3.0 7.0 0.00 0.00 0.00 63 1027.5
20260830064115 64 256 3.0 3.0 0.00 0.00 0.00 63 1027.3
20260830063608 64 297 3.0 3.0 0.00 0.00 0.00 63 1027.8
20260830063108 64 242 4.0 5.0 0.00 0.00 0.00 62 1027.6
20260830062603 65 240 2.0 3.0 0.00 0.00 0.00 62 1027.3
20260830062057 65 245 3.0 3.0 0.00 0.00 0.00 62 1027.5
20260830061552 65 244 2.0 3.0 0.00 0.00 0.00 61 1027.4
20260830061048 65 62 2.0 5.0 0.00 0.00 0.00 61 1027.0
20260830060544 66 266 0.0 2.0 0.00 0.00 0.00 60 1027.0
20260830060041 66 230 0.0 0.0 0.00 0.00 0.00 60 1027.3
20260830055536 65 243 2.0 3.0 0.00 0.00 0.00 60 1027.1
20260830055032 65 225 1.0 2.0 0.00 0.00 0.00 61 1026.9
20260830054527 65 238 0.0 0.0 0.00 0.00 0.00 61 1027.0
20260830054022 65 267 4.0 5.0 0.00 0.00 0.00 62 1027.1
20260830053518 65 244 1.0 2.0 0.00 0.00 0.00 62 1027.0
20260830053017 65 229 4.0 5.0 0.00 0.00 0.00 63 1027.1
20260830052513 65 243 2.0 3.0 0.00 0.00 0.00 63 1026.9
20260830052012 65 302 9.0 10.0 0.00 0.00 0.00 63 1026.9
20260830051508 65 241 3.0 3.0 0.00 0.00 0.00 62 1027.0
20260830051003 65 290 2.0 3.0 0.00 0.00 0.00 62 1026.6
20260830050457 66 279 4.0 7.0 0.00 0.00 0.00 61 1026.8
20260830045956 66 226 2.0 2.0 0.00 0.00 0.00 59 1026.5
20260830045451 66 272 5.0 7.0 0.00 0.00 0.00 58 1026.4
20260830044950 66 244 0.0 0.0 0.00 0.00 0.00 58 1026.4
20260830044446 66 251 1.0 2.0 0.00 0.00 0.00 58 1026.4
20260830043940 66 246 3.0 5.0 0.00 0.00 0.00 57 1026.4
20260830043435 67 215 2.0 2.0 0.00 0.00 0.00 57 1026.4
20260830042933 67 191 2.0 3.0 0.00 0.00 0.00 56 1026.4
20260830042427 67 99 2.0 5.0 0.00 0.00 0.00 56 1026.3
20260830041926 67 250 5.0 7.0 0.00 0.00 0.00 55 1026.4
20260830041425 68 0 4.0 7.0 0.00 0.00 0.00 54 1026.6
20260830040921 68 6 3.0 5.0 0.00 0.00 0.00 53 1026.5
20260830040417 70 134 4.0 9.0 0.00 0.00 0.00 50 1026.4
20260830035915 71 279 8.0 12.0 0.00 0.00 0.00 47 1026.4
20260830035414 71 63 2.0 3.0 0.00 0.00 0.00 44 1026.3
20260830034910 71 264 2.0 2.0 0.00 0.00 0.00 44 1026.3
20260830034406 72 241 0.0 0.0 0.00 0.00 0.00 44 1025.9
20260830033900 72 239 0.0 0.0 0.00 0.00 0.00 44 1025.8
20260830033355 72 230 0.0 0.0 0.00 0.00 0.00 44 1025.8
20260830032851 72 244 1.0 2.0 0.00 0.00 0.00 44 1025.8
20260830032350 71 267 2.0 2.0 0.00 0.00 0.00 44 1025.8
20260830031845 72 245 1.0 2.0 0.00 0.00 0.00 44 1025.5
20260830031341 72 269 4.0 5.0 0.00 0.00 0.00 44 1025.5
20260830030836 72 252 1.0 2.0 0.00 0.00 0.00 43 1025.4
20260830030332 72 276 3.0 3.0 0.00 0.00 0.00 44 1025.1
20260830025831 72 262 0.0 0.0 0.00 0.00 0.00 44 1025.0
20260830025330 73 241 2.0 3.0 0.00 0.00 0.00 44 1025.1
20260830024824 73 255 3.0 7.0 0.00 0.00 0.00 44 1025.3
20260830024319 72 249 6.0 9.0 0.00 0.00 0.00 45 1025.0
20260830023812 72 267 4.0 5.0 0.00 0.00 0.00 46 1024.9
20260830023311 72 241 5.0 7.0 0.00 0.00 0.00 47 1024.8
20260830022810 72 244 5.0 7.0 0.00 0.00 0.00 47 1025.0
20260830022306 72 231 5.0 7.0 0.00 0.00 0.00 48 1024.9
20260830021805 72 257 7.0 10.0 0.00 0.00 0.00 49 1025.1
20260830021300 72 249 4.0 5.0 0.00 0.00 0.00 48 1024.9
20260830020759 72 278 7.0 9.0 0.00 0.00 0.00 48 1025.1
20260830020255 72 248 5.0 7.0 0.00 0.00 0.00 48 1025.0
20260830015754 72 225 7.0 12.0 0.00 0.00 0.00 49 1025.0
20260830015250 72 258 7.0 9.0 0.00 0.00 0.00 49 1025.1
20260830014746 72 287 9.0 12.0 0.00 0.00 0.00 49 1025.5
20260830014242 72 299 9.0 17.0 0.00 0.00 0.00 48 1024.9
20260830013737 72 268 10.0 12.0 0.00 0.00 0.00 48 1025.0
20260830013232 73 235 10.0 14.0 0.00 0.00 0.00 48 1024.9